Port Hope, MI

11:03 PM EDT on March 25, 2017 (GMT -0400)
Port Hope

Weather History for KP58 - January, 2013

Change the Weather History Date:

Saturday, January 19, 2013

  Actual Average Record
Temperature  
Mean Temperature 39 °F -  
Max Temperature 42 °F 25 °F 42 °F (2013)
Min Temperature 36 °F 14 °F 3 °F (1997)
Degree Days  
Heating Degree Days 26    
Moisture  
Dew Point 28 °F    
Average Humidity 67    
Maximum Humidity 82    
Minimum Humidity 55    
Precipitation  
Precipitation 0.01 in - - ()
Sea Level Pressure  
Sea Level Pressure 29.71 in    
Wind  
Wind Speed 11 mph (SW)    
Max Wind Speed 15 mph    
Max Gust Speed 32 mph    
Averages and records for this station are not official NWS values.
T = Trace of Precipitation, MM = Missing Value Source: NWS Daily Summary

Daily Weather History Graph

Daily Weather History Graph

Search for Another Location

Airport or City:

Trip Planner

Search our weather history database for the weather conditions in past years. The results will help you decide how hot, cold, wet, or windy it might be!

Date:

Astronomy

Jan. 19, 2013 Rise Set
Actual Time 8:00 AM EST 5:24 PM EST
Civil Twilight 7:28 AM EST 5:56 PM EST
Nautical Twilight 6:53 AM EST 6:31 PM EST
Astronomical Twilight 6:18 AM EST 7:05 PM EST
Moon 11:52 AM EST (1/19) 1:30 AM EST (1/19)
Length of Visible Light 10h 27m
Length of Day
9h 24m
First Quarter, 57% of the Moon is Illuminated
Jan 19
First Quarter
Jan 26
Full
Feb 3
Last Quarter
Feb 10
New
Feb 17
First Quarter

Hourly Weather History & Observations

Time (EST) Temp. Windchill Dew Point Humidity Pressure Visibility Wind Dir Wind Speed Gust Speed Precip Events Conditions
12:51 AM 36.0 °F 26.7 °F 21.0 °F 55% 29.84 in - SW 15.0 mph 32.2 mph N/A   Unknown
1:51 AM 36.0 °F 27.5 °F 23.0 °F 59% 29.83 in - SW 12.7 mph 23.0 mph N/A   Unknown
2:51 AM 37.0 °F 28.5 °F 23.0 °F 57% 29.82 in - SW 13.8 mph 25.3 mph N/A   Unknown
3:51 AM 37.0 °F 28.9 °F 24.1 °F 59% 29.83 in - SW 12.7 mph 24.2 mph N/A   Unknown
4:51 AM 37.9 °F 30.0 °F 25.0 °F 60% 29.81 in - SW 12.7 mph 21.9 mph N/A   Unknown
5:51 AM 37.9 °F 30.0 °F 26.1 °F 62% 29.81 in - SW 12.7 mph 21.9 mph N/A   Unknown
6:51 AM 37.9 °F 30.9 °F 27.0 °F 65% 29.82 in - WSW 10.4 mph 21.9 mph N/A   Unknown
7:51 AM 37.0 °F 29.8 °F 27.0 °F 67% 29.83 in - WSW 10.4 mph 20.7 mph N/A   Unknown
8:51 AM 37.0 °F 31.6 °F 28.0 °F 70% 29.84 in - SW 6.9 mph 18.4 mph N/A   Unknown
9:51 AM 37.9 °F 30.9 °F 28.0 °F 68% 29.86 in - WSW 10.4 mph - N/A   Unknown
10:51 AM 37.9 °F 30.0 °F 28.9 °F 70% 29.86 in - SW 12.7 mph 20.7 mph N/A   Unknown
11:51 AM 39.0 °F 32.8 °F 28.9 °F 67% 29.82 in - WSW 9.2 mph 19.6 mph N/A   Unknown
12:51 PM 39.0 °F 32.8 °F 30.0 °F 70% 29.78 in - SW 9.2 mph 17.3 mph N/A   Unknown
1:51 PM 37.0 °F 33.3 °F 32.0 °F 82% 29.75 in - Variable 4.6 mph - 0.01 in   Unknown
2:51 PM 37.9 °F 34.4 °F 30.9 °F 76% 29.69 in - Variable 4.6 mph - N/A   Unknown
3:51 PM 39.9 °F 36.7 °F 30.0 °F 68% 29.67 in - Variable 4.6 mph - N/A   Unknown
4:51 PM 39.0 °F 35.7 °F 30.0 °F 70% 29.63 in - South 4.6 mph - N/A   Unknown
5:51 PM 39.0 °F 36.8 °F 30.0 °F 70% 29.60 in - Variable 3.5 mph - N/A   Unknown
6:51 PM 41.0 °F 34.7 °F 30.9 °F 67% 29.57 in - SW 10.4 mph 17.3 mph N/A   Unknown
7:51 PM 42.1 °F 35.2 °F 30.9 °F 65% 29.53 in - SW 12.7 mph 24.2 mph N/A   Unknown
8:51 PM 42.1 °F 34.9 °F 30.9 °F 65% 29.49 in - SW 13.8 mph 28.8 mph N/A   Unknown
9:51 PM 41.0 °F 33.5 °F 32.0 °F 70% 29.47 in - SW 13.8 mph 27.6 mph N/A   Unknown
10:51 PM 39.9 °F 32.9 °F 32.0 °F 73% 29.44 in - SW 11.5 mph 24.2 mph N/A   Unknown
11:51 PM 39.9 °F 32.9 °F 33.1 °F 77% 29.40 in - SW 11.5 mph 25.3 mph N/A   Unknown